Weather History for Marshfield, WI

Change the Weather History Date:

Monday, December 30, 2013

  Actual Average Record
Temperature  
Mean Temperature -11 °F -  
Max Temperature -2 °F 24 °F 47 °F (1936)
Min Temperature -20 °F 6 °F -20 °F (1938)
Degree Days  
Heating Degree Days 76    
Moisture  
Dew Point -17 °F    
Average Humidity 71    
Maximum Humidity 82    
Minimum Humidity 51    
Precipitation  
Precipitation 0.00 in - - ()
Sea Level Pressure  
Sea Level Pressure 30.26 in    
Wind  
Wind Speed 4 mph (WNW)    
Max Wind Speed 6 mph    
Max Gust Speed -    
Visibility 8 miles    
Events Snow    
Averages and records for this station are not official NWS values.
T = Trace of Precipitation, MM = Missing Value Source: NWS Daily Summary

Daily Weather History Graph

Daily Weather History Graph

Search for Another Location

Airport:

Trip Planner

Search our weather history database for the weather conditions in past years. The results will help you decide how hot, cold, wet, or windy it might be!

Date:

Astronomy

Dec. 30, 2013 Rise Set
Actual Time 7:37 AM CST 4:29 PM CST
Civil Twilight 7:04 AM CST 5:02 PM CST
Nautical Twilight 6:27 AM CST 5:39 PM CST
Astronomical Twilight 5:51 AM CST 6:15 PM CST
Moon 5:25 AM CST (12/30) 3:04 PM CST (12/30)
Length of Visible Light 9h 58m
Length of Day
8h 51m
Waning Crescent, 4% of the Moon is Illuminated
Dec 30
Waning Crescent
Jan 1
New
Jan 7
First Quarter
Jan 15
Full
Jan 23
Last Quarter

Hourly Weather History & Observations

Time (CST) Temp. Windchill Dew Point Humidity Pressure Visibility Wind Dir Wind Speed Gust Speed Precip Events Conditions
12:54 AM -18.9 °F -32.0 °F -26.0 °F 70% 30.30 in 10.0 mi WNW 4.6 mph - N/A   Clear
1:54 AM -17.0 °F - -23.1 °F 74% 30.30 in 10.0 mi Calm Calm - N/A   Clear
2:54 AM -17.0 °F -27.2 °F -23.1 °F 74% 30.30 in 10.0 mi NW 3.5 mph - N/A   Clear
3:54 AM -20.0 °F -33.3 °F -25.1 °F 78% 30.29 in 10.0 mi WNW 4.6 mph - N/A   Clear
4:54 AM -18.9 °F -32.0 °F -24.0 °F 78% 30.30 in 10.0 mi WNW 4.6 mph - N/A   Clear
5:54 AM -20.0 °F -33.3 °F -24.0 °F 82% 30.31 in 10.0 mi West 4.6 mph - N/A   Clear
6:54 AM -18.9 °F -29.5 °F -24.0 °F 78% 30.32 in 10.0 mi West 3.5 mph - N/A   Clear
7:54 AM -20.9 °F -31.7 °F -26.0 °F 77% 30.34 in 9.0 mi WNW 3.5 mph - N/A   Clear
8:54 AM -20.0 °F -30.7 °F -24.0 °F 82% 30.35 in 8.0 mi WNW 3.5 mph - N/A   Scattered Clouds
9:54 AM -14.1 °F - -20.0 °F 75% 30.36 in 8.0 mi Calm Calm - N/A   Scattered Clouds
10:54 AM -11.0 °F -22.8 °F -18.9 °F 68% 30.35 in 10.0 mi WNW 4.6 mph - N/A   Partly Cloudy
11:54 AM -8.0 °F -19.2 °F -18.0 °F 61% 30.32 in 10.0 mi WNW 4.6 mph - N/A   Mostly Cloudy
12:54 PM -6.0 °F -16.9 °F -18.9 °F 54% 30.28 in 10.0 mi West 4.6 mph - N/A   Mostly Cloudy
1:54 PM -5.1 °F -17.6 °F -18.0 °F 54% 30.27 in 10.0 mi West 5.8 mph - N/A   Overcast
2:54 PM -4.0 °F -14.6 °F -18.0 °F 51% 30.26 in 10.0 mi NW 4.6 mph - N/A   Overcast
3:54 PM -4.0 °F -14.6 °F -16.1 °F 56% 30.26 in 10.0 mi NNW 4.6 mph - N/A   Overcast
4:54 PM -4.0 °F -12.4 °F -16.1 °F 56% 30.26 in 10.0 mi NW 3.5 mph - N/A   Overcast
5:54 PM -4.0 °F - -13.0 °F 65% 30.26 in 4.0 mi Calm Calm - 0.00 in Snow Light Snow
6:45 PM -4.0 °F -12.4 °F -11.0 °F 72% 30.13 in 2.5 mi West 3.5 mph - 0.00 in Snow Light Snow
6:54 PM -4.0 °F -12.4 °F -9.9 °F 76% 30.26 in 3.0 mi West 3.5 mph - 0.00 in Snow Light Snow
7:03 PM -4.0 °F -12.4 °F -9.9 °F 76% 30.12 in 2.0 mi West 3.5 mph - 0.00 in Snow Light Snow
7:14 PM -4.0 °F -14.6 °F -9.9 °F 76% 30.13 in 3.0 mi West 4.6 mph - 0.00 in Snow Light Snow
7:23 PM -4.0 °F -12.4 °F -9.9 °F 76% 30.13 in 2.0 mi West 3.5 mph - 0.00 in Snow Light Snow
7:54 PM -2.9 °F -13.3 °F -9.0 °F 75% 30.27 in 8.0 mi West 4.6 mph - 0.00 in   Overcast
8:54 PM -2.9 °F -15.0 °F -9.0 °F 75% 30.26 in 2.5 mi WNW 5.8 mph - 0.00 in Snow Light Snow
9:01 PM -2.9 °F -15.0 °F -9.0 °F 75% 30.13 in 6.0 mi West 5.8 mph - 0.00 in Snow Light Snow
9:54 PM -2.9 °F -13.3 °F -9.0 °F 75% 30.24 in 7.0 mi WNW 4.6 mph - 0.00 in Snow Light Snow
10:54 PM -2.9 °F -13.3 °F -9.0 °F 75% 30.23 in 6.0 mi West 4.6 mph - 0.00 in   Haze
11:54 PM -2.9 °F -11.2 °F -9.0 °F 75% 30.22 in 7.0 mi West 3.5 mph - N/A   Overcast